カタログに戻る

ARIANE 2 DEB

運用中UNKNOWN
NORAD 23966·DEBRIS·🇫🇷 France

打ち上げ Oct 28, 1988 から Guiana Space Centre

Loading…

次のパス (今後24時間)

TLE

経年Source: Space-Track

元期: Aug 24, 2026, 05:43 UTC

1 23966U 88098F   26236.23844485  .02638522 -15253-4  67163-2 0  9990
2 23966   3.4240 293.3554 1770471 334.2289  17.9190 12.19954651408462

AllMySatでARIANE 2 DEBをリアルタイム追跡

Download on the App Store